Location: Newark
(10.6500°N, 71.6000°W)
Time: 00:09:19
(UTC+00:00)

Hubble Space Telescope - Visible Passes

Search period start: 16 October 2019 00:00
Search period end: 26 October 2019 00:00
Orbit: 536 x 540 km, 28.5° (Epoch: 14 October)

Date Brightness Start Highest point End Pass type
(mag) Time Alt. Az. Time Alt. Az. Time Alt. Az.
16 Oct 1.9 23:32:50 10° W 23:36:43 39° SSW 23:39:30 17° SSE visible
17 Oct 2.6 23:22:33 10° W 23:26:08 28° SSW 23:29:42 10° SSE visible
18 Oct 3.1 23:12:26 10° W 23:15:32 20° SSW 23:18:39 10° SSE visible
19 Oct 3.5 23:02:36 10° WSW 23:04:58 15° SSW 23:07:20 10° S visible
20 Oct 3.8 22:53:37 10° SW 22:54:24 10° SSW 22:55:10 10° SSW visible
22 Oct 3.5 08:58:22 10° S 09:00:31 14° SSE 09:02:42 10° ESE visible
23 Oct 3.0 08:48:59 18° SSE 08:49:57 19° SSE 08:52:56 10° ESE visible
24 Oct 2.7 08:39:50 26° SE 08:39:50 26° SE 08:42:51 10° E visible
25 Oct 3.0 08:30:37 24° E 08:30:37 24° E 08:32:36 10° E visible
25 Oct 1.5 10:06:07 10° W 10:09:56 36° NNW 10:13:45 10° NE visible
